[[{"header":{"parameterUnit":"m.s-1","parameterCategory":1,"la1":30.2991,"la2":30.254,"lo1":-89.0895,"lo2":-89.0444,"dy":0.0017,"dx":0.0017,"nx":28,"ny":28,"refTime":"2025-05-20T21:00:00:Z","depth":0,"parameterNumber":2,"parameterNumberName":"U-component_of_WINDS"},"data":[0,0,0,0,0,0,0,0,0,0,0,0,0,0,0,0,0,0,0,0,0,0,0,0,0,0,0,0,0,0,0,0,0,0,0,0,0,0,0,0,0,0,0,0,0,0,0,0,0,0,0,0,0,0,0,0,0,0,0.3177,0.3178,0,0.3299,0.33,0.3301,0.3358,0.3358,0.3358,0.3358,0.3488,0.3492,0.3495,0,0,0,0,0,0,0,0,0,0,0,0,0,0.2999,0.3002,0.3177,0.3178,0.318,0.3298,0.33,0.3302,0.3358,0.3358,0.3358,0.3358,0.3487,0.3491,0.3496,0,0,0,0,0,0,0,0,0,0,0,0,0,0.3094,0.3003,0.3176,0.3222,0.3227,0.3298,0.33,0.3302,0.3358,0.3358,0.3358,0.3358,0.3486,0.3491,0.3496,0.3533,0,0,0.3513,0.3515,0,0,0,0,0,0,0,0,0.3088,0.31,0.3214,0.3219,0.3225,0.3313,0.3285,0.338,0.3358,0.3309,0.3358,0.3358,0.343,0.344,0.3464,0.3539,0.3544,0.3513,0.3516,0.3519,0.352,0,0,0,0,0,0,0,0.3082,0.3096,0.3225,0.3215,0.3222,0.3238,0.3252,0.3304,0.3369,0.3313,0.3317,0.3331,0.3434,0.3458,0.3467,0.3546,0.3513,0.3518,0.3521,0.3523,0.3661,0.3661,0,0,0,0,0,0,0.3067,0.309,0.3221,0.3229,0.3155,0.3242,0.3257,0.3285,0.3369,0.3381,0.3331,0.3333,0.3449,0.3461,0.3472,0.3522,0.3519,0.3524,0.3527,0.366,0.3661,0.3661,0,0,0,0,0,0,0.3063,0.3078,0.3216,0.316,0.3179,0.3245,0.3276,0.3287,0.3312,0.3382,0.3395,0.3344,0.345,0.3465,0.3517,0.3527,0.3526,0.3531,0.366,0.366,0.3661,0.3621,0,0,0,0,0,0,0.3058,0.3076,0.3089,0.316,0.3182,0.3257,0.3277,0.329,0.3321,0.3325,0.3398,0.341,0.3451,0.3509,0.3523,0.3535,0.3535,0.3659,0.366,0.3661,0.3622,0.362,0.3619,0,0,0,0,0,0.3051,0.3074,0.3089,0.3105,0.3199,0.3258,0.3271,0.3316,0.3321,0.3336,0.3381,0.3407,0.3524,0.3514,0.353,0.3544,0.3659,0.366,0.3661,0.3623,0.3621,0.3619,0,0,0,0,0,0,0.3004,0.3084,0.3102,0.3148,0.3195,0.3267,0.3287,0.3312,0.336,0.3362,0.3418,0.3434,0.3483,0.3519,0.3506,0.3585,0.3594,0.3598,0.356,0.3558,0.3557,0.3548,0.354,0,0,0,0,0,0.2998,0.3037,0.3106,0.314,0.3163,0.3221,0.3248,0.3279,0.3331,0.3352,0.3401,0.3452,0.3501,0.3531,0.358,0.3627,0.3645,0.3645,0.3643,0.3642,0.3645,0.3676,0.3677,0.3664,0.3664,0.3664,0,0,0.2988,0.3037,0.3058,0.3132,0.3172,0.3214,0.3237,0.328,0.3312,0.3359,0.3412,0.3449,0.3511,0.3562,0.3587,0.3593,0.3653,0.3643,0.3641,0.3646,0.3677,0.3678,0.3679,0.3665,0.3665,0.3665,0,0,0.2991,0.303,0.3064,0.3104,0.3164,0.3203,0.3211,0.3279,0.3306,0.3359,0.3396,0.3436,0.3518,0.3561,0.3593,0.3614,0.3641,0.3628,0.3621,0.365,0.3651,0.3652,0.3662,0.3664,0.3631,0.3631,0.3631,0,0.2971,0.3033,0.3079,0.3119,0.3152,0.3195,0.3231,0.3268,0.3342,0.3365,0.337,0.3475,0.3519,0.3582,0.3587,0.3611,0.3624,0.362,0.3647,0.3648,0.365,0.366,0.3663,0.3629,0.3629,0.363,0.363,0,0.3007,0.3049,0.307,0.3138,0.3173,0.3211,0.3265,0.3295,0.3324,0.3362,0.3418,0.3472,0.3533,0.355,0.3579,0.3618,0.362,0.3635,0.3646,0.3649,0.3659,0.3663,0.3627,0.3627,0.3628,0.3628,0,0,0.2982,0.3077,0.3084,0.3116,0.3187,0.3222,0.3263,0.3322,0.3347,0.3397,0.3435,0.3504,0.3519,0.3555,0.3589,0.3614,0.363,0.3627,0.363,0.3627,0.3679,0.3668,0.3671,0.3647,0.3648,0.3649,0.3675,0,0.2996,0.307,0.3113,0.3171,0.3212,0.3255,0.3291,0.334,0.3377,0.342,0.3462,0.3511,0.3526,0.3549,0.3575,0.3622,0.3641,0.3621,0.3686,0.3687,0.367,0.3676,0.3664,0.3686,0.3679,0.3679,0.368,0,0.3022,0.307,0.313,0.3198,0.3217,0.3249,0.3307,0.3346,0.3403,0.3429,0.3471,0.3504,0.3553,0.3558,0.3627,0.3612,0.3641,0.3668,0.367,0.3679,0.3684,0.3687,0.3694,0.3697,0.3686,0.3686,0.3685,0,0.3,0.308,0.3127,0.3154,0.3234,0.3255,0.329,0.3347,0.3379,0.3431,0.3453,0.351,0.3542,0.3586,0.3635,0.3634,0.37,0.3709,0.3725,0.3723,0.3737,0.3736,0.375,0.3753,0.3753,0.3753,0.3753,0,0.3012,0.3048,0.3119,0.3148,0.3191,0.3242,0.3283,0.3322,0.3372,0.3411,0.3452,0.3488,0.355,0.3595,0.3634,0.3686,0.37,0.3724,0.3734,0.3721,0.3718,0.3742,0.3743,0.3754,0.3754,0.3754,0.3754,0,0.2995,0.3044,0.3098,0.3169,0.3188,0.3217,0.3279,0.331,0.335,0.34,0.3414,0.3478,0.3533,0.3586,0.366,0.3687,0.3739,0.3752,0.3719,0.3725,0.3739,0.3737,0.377,0.3778,0.3774,0.3774,0.3774,0,0.2999,0.3028,0.3102,0.3131,0.3164,0.3209,0.3243,0.3295,0.3329,0.3397,0.3421,0.3479,0.3528,0.3614,0.3669,0.3726,0.3742,0.3749,0.3751,0.3737,0.3744,0.3742,0.3747,0.3748,0.3748,0.3748,0.3748,0,0.3003,0.3026,0.3072,0.3127,0.3166,0.3213,0.3261,0.3282,0.3344,0.338,0.3437,0.3474,0.355,0.3608,0.3672,0.3711,0.3741,0.3747,0.3754,0.3741,0.3722,0.3735,0.3718,0.3746,0.3746,0.3746,0.3746,0.3746,0.2999,0.3027,0.3084,0.3135,0.3176,0.322,0.3254,0.3298,0.3345,0.341,0.3438,0.3495,0.3554,0.3643,0.3681,0.3729,0.3736,0.3745,0.3748,0.375,0.3748,0.3713,0.374,0.374,0.374,0.3741,0.3741,0,0.3006,0.3045,0.3091,0.3156,0.3197,0.322,0.3274,0.3308,0.3357,0.3409,0.3456,0.3522,0.3579,0.3637,0.3698,0.3725,0.374,0.3739,0.3739,0.3748,0.3737,0.3726,0.3726,0.3726,0.3726,0.3726,0.3726,0.3726,0.3014,0.3064,0.3094,0.3166,0.3205,0.3261,0.329,0.3333,0.3374,0.3445,0.3492,0.353,0.3585,0.365,0.3705,0.3721,0.3742,0.3737,0.3758,0.3747,0.3748,0.3749,0.3738,0.3741,0.3741,0.3764,0.3764,0.3765]},{"header":{"parameterUnit":"m.s-1","parameterCategory":1,"la1":30.2991,"la2":30.254,"lo1":-89.0895,"lo2":-89.0444,"dy":0.0017,"dx":0.0017,"nx":28,"ny":28,"refTime":"2025-05-20T21:00:00:Z","depth":0,"parameterNumber":3,"parameterNumberName":"V-component_of_WINDS"},"data":[0,0,0,0,0,0,0,0,0,0,0,0,0,0,0,0,0,0,0,0,0,0,0,0,0,0,0,0,0,0,0,0,0,0,0,0,0,0,0,0,0,0,0,0,0,0,0,0,0,0,0,0,0,0,0,0,0,0,5.4489,5.4489,0,5.446,5.446,5.446,5.4446,5.4446,5.4446,5.4446,5.4413,5.4412,5.4412,0,0,0,0,0,0,0,0,0,0,0,0,0,5.453,5.4529,5.4489,5.4489,5.4488,5.446,5.446,5.446,5.4446,5.4446,5.4446,5.4446,5.4414,5.4413,5.4411,0,0,0,0,0,0,0,0,0,0,0,0,0,5.4508,5.4529,5.4489,5.4478,5.4477,5.4461,5.446,5.446,5.4446,5.4446,5.4446,5.4446,5.4414,5.4413,5.4411,5.4402,0,0,5.4407,5.4407,0,0,0,0,0,0,0,0,5.4509,5.4506,5.448,5.4479,5.4478,5.4457,5.4462,5.444,5.4446,5.4458,5.4446,5.4446,5.4428,5.4425,5.442,5.4401,5.4399,5.4407,5.4406,5.4406,5.4405,0,0,0,0,0,0,0,5.4511,5.4507,5.4478,5.448,5.4478,5.4474,5.4471,5.4458,5.4443,5.4457,5.4456,5.4453,5.4427,5.4421,5.4419,5.4399,5.4407,5.4406,5.4405,5.4405,5.4373,5.4373,0,0,0,0,0,0,5.4514,5.4509,5.4479,5.4477,5.4494,5.4473,5.447,5.4463,5.4443,5.444,5.4453,5.4452,5.4423,5.442,5.4417,5.4407,5.4406,5.4404,5.4404,5.4373,5.4373,5.4373,0,0,0,0,0,0,5.4515,5.4512,5.448,5.4493,5.4488,5.4473,5.4466,5.4463,5.4457,5.444,5.4437,5.445,5.4423,5.4419,5.4407,5.4405,5.4404,5.4403,5.4373,5.4373,5.4373,5.4385,0,0,0,0,0,0,5.4516,5.4512,5.4509,5.4493,5.4488,5.447,5.4465,5.4462,5.4455,5.4454,5.4436,5.4433,5.4423,5.4409,5.4406,5.4403,5.4402,5.4373,5.4373,5.4373,5.4384,5.4385,5.4386,0,0,0,0,0,5.4518,5.4512,5.4509,5.4505,5.4483,5.447,5.4467,5.4456,5.4455,5.4451,5.4441,5.4434,5.4406,5.4408,5.4404,5.4401,5.4373,5.4373,5.4373,5.4384,5.4385,5.4385,0,0,0,0,0,0,5.4527,5.451,5.4506,5.4495,5.4484,5.4468,5.4463,5.4457,5.4446,5.4445,5.4432,5.4428,5.4417,5.4408,5.441,5.4392,5.4389,5.4388,5.4399,5.4399,5.44,5.4402,5.44,0,0,0,0,0,5.4528,5.4519,5.4504,5.4496,5.4491,5.4478,5.4472,5.4465,5.4453,5.4448,5.4436,5.4424,5.4413,5.4406,5.4394,5.4383,5.4379,5.438,5.438,5.4381,5.438,5.4375,5.4375,5.4373,5.4373,5.4373,0,0,5.4529,5.4519,5.4514,5.4498,5.4489,5.448,5.4474,5.4465,5.4458,5.4446,5.4434,5.4425,5.4411,5.44,5.4394,5.4392,5.438,5.4381,5.4381,5.438,5.4375,5.4375,5.4375,5.4373,5.4373,5.4373,0,0,5.4527,5.4518,5.4511,5.4503,5.449,5.4482,5.448,5.4465,5.4459,5.4447,5.4439,5.443,5.4411,5.4402,5.4394,5.4391,5.4385,5.4388,5.4391,5.4386,5.4386,5.4386,5.4386,5.4386,5.4387,5.4387,5.4387,0,5.453,5.4517,5.4507,5.4499,5.4493,5.4483,5.4476,5.4468,5.4452,5.4447,5.4445,5.4422,5.4412,5.4399,5.4399,5.4393,5.4391,5.439,5.4387,5.4387,5.4387,5.4387,5.4387,5.4388,5.4388,5.4388,5.4388,0,5.4521,5.4513,5.4508,5.4495,5.4488,5.448,5.4469,5.4463,5.4457,5.4449,5.4438,5.4425,5.4412,5.4408,5.4402,5.4395,5.4394,5.439,5.4386,5.4388,5.4388,5.4387,5.4389,5.4388,5.4388,5.4388,0,0,5.4522,5.4506,5.4504,5.4499,5.4485,5.4478,5.447,5.4459,5.4454,5.4443,5.4437,5.4422,5.4418,5.441,5.4403,5.4398,5.4398,5.4395,5.4394,5.4396,5.4391,5.4395,5.4395,5.4394,5.4394,5.4394,5.4393,0,5.4519,5.4505,5.4498,5.4487,5.4479,5.4472,5.4465,5.4456,5.4448,5.444,5.4432,5.4422,5.4418,5.4413,5.4409,5.4399,5.4397,5.4399,5.4387,5.4387,5.4392,5.4394,5.4398,5.4397,5.4393,5.4392,5.4392,0,5.4512,5.4504,5.4493,5.4482,5.4479,5.4473,5.4463,5.4455,5.4445,5.444,5.4433,5.4425,5.4417,5.4415,5.4403,5.4404,5.4399,5.4394,5.4394,5.4392,5.439,5.4393,5.4397,5.4397,5.4392,5.4392,5.4392,0,5.4515,5.4501,5.4493,5.4489,5.4475,5.4472,5.4466,5.4456,5.445,5.4441,5.4437,5.4427,5.4421,5.4413,5.4404,5.4403,5.4393,5.439,5.4389,5.4389,5.4387,5.4387,5.439,5.4383,5.4383,5.4383,5.4383,0,5.4512,5.4505,5.4495,5.449,5.4483,5.4475,5.4468,5.4461,5.4453,5.4447,5.4439,5.4433,5.4421,5.4413,5.4406,5.4398,5.4395,5.4391,5.4389,5.4392,5.4392,5.4388,5.4388,5.4383,5.4383,5.4383,5.4383,0,5.4513,5.4506,5.4497,5.4486,5.4483,5.4479,5.4469,5.4464,5.4458,5.445,5.4448,5.4437,5.4428,5.4418,5.4405,5.44,5.4393,5.439,5.4397,5.4396,5.4396,5.4396,5.4396,5.4396,5.4389,5.4389,5.4389,0,5.4511,5.4507,5.4497,5.4493,5.4488,5.4481,5.4476,5.4467,5.4462,5.4452,5.4448,5.4439,5.4432,5.4418,5.4408,5.4399,5.4396,5.4397,5.4394,5.4398,5.4397,5.4398,5.4397,5.4397,5.4397,5.4397,5.4397,0,5.451,5.4507,5.45,5.4493,5.4488,5.4481,5.4474,5.4471,5.4462,5.4456,5.4448,5.4443,5.4431,5.4423,5.4413,5.4406,5.44,5.4399,5.4398,5.4401,5.4405,5.4404,5.4399,5.4398,5.4398,5.4398,5.4398,5.4398,5.451,5.4506,5.4499,5.4492,5.4487,5.4481,5.4477,5.4471,5.4464,5.4455,5.445,5.4443,5.4434,5.442,5.4414,5.4408,5.4406,5.4405,5.4405,5.4405,5.4406,5.4407,5.4406,5.4406,5.4406,5.4406,5.4406,0,5.4508,5.4504,5.4498,5.449,5.4485,5.4482,5.4475,5.447,5.4464,5.4457,5.4451,5.4442,5.4435,5.4426,5.4417,5.4414,5.4411,5.4412,5.4412,5.4411,5.4408,5.4409,5.4415,5.4415,5.4415,5.4415,5.4415,5.4415,5.4507,5.4501,5.4497,5.4489,5.4485,5.4478,5.4474,5.4469,5.4464,5.4456,5.445,5.4445,5.4437,5.4429,5.4422,5.4419,5.4417,5.4418,5.4415,5.4412,5.4411,5.441,5.4412,5.4418,5.4418,5.4419,5.4419,5.4419]}]]